This demonstration page uses our WeatherBlox Daily Observations layout. Learn more.

Left ArrowRight Arrow

Hourly Observations for June 24, 2015

Temp ( °F °C ) Dew Point ( °F °C ) Humidity (%) Winds ( mph kmh ) Pressure ( in mb ) Visibility ( mi km ) Precip ( " mm )
12:50 am 00:50 Cloudy 80 26.7 72 22.2 76 76 NE 12 19 29.97 1015 10 16 0.00 0.00
12:59 am 00:59 Cloudy 80 26.7 73 22.8 79 79 NE 15 24 29.97 1015 9 14 0.00 0.00
1:23 am 01:23 Cloudy 79 26.1 73 22.8 82 82 NE 21 33 30.00 1016 8 13 0.00 0.00
1:28 am 01:28 Cloudy with Thunderstorms 79 26.1 73 22.8 82 82 ENE 9 15 30.00 1016 8 13 0.00 0.00
1:50 am 01:50 Cloudy with Thunderstorms 74 23.3 72 22.2 94 94 NE 17 28 30.00 1016 4 6 0.01 0.25
1:59 am 01:59 Cloudy with Thunderstorms 73 22.8 72 22.2 96 96 NE 16 26 30.01 1016 2 3 0.10 2.54
2:03 am 02:03 Cloudy with Thunderstorms 73 22.8 72 22.2 96 96 NE 13 20 30.00 1016 1 2 0.00 0.00
2:17 am 02:17 Cloudy with Thunderstorms 72 22.2 72 22.2 100 100 N 16 26 29.77 1008 1 1 0.00 0.00
2:20 am 02:20 Cloudy with Strong Thunderstorms 72 22.2 72 22.2 100 100 NNE 15 24 30.03 1017 1 1 0.00 0.00
2:23 am 02:23 Cloudy with Strong Thunderstorms 72 22.2 72 22.2 100 100 N 22 35 30.03 1017 1 1 0.00 0.00
2:38 am 02:38 Cloudy with Strong Thunderstorms 74 23.4 74 23.4 100 100 WSW 13 20 30.06 1018 1 1 0.00 0.00
2:39 am 02:39 Cloudy with Strong Thunderstorms 72 22.2 71 21.7 97 97 WSW 14 22 30.06 1018 1 2 0.00 0.00
2:59 am 02:59 Cloudy with Thunderstorms 56 13.3 49 9.4 77 77 SSW 6 9 29.98 1015 2 3 1.82 46.23
3:21 am 03:21 Cloudy with Thunderstorms 71 21.7 69 20.6 94 94 S 7 11 30.00 1016 9 14 0.00 0.00
3:38 am 03:38 Mostly Cloudy with Thunderstorms 71 21.7 70 21.1 96 96 S 8 13 29.97 1015 10 16 0.00 0.00
3:59 am 03:59 Mostly Cloudy 79 26.1 72 22.2 79 79 SW 3 6 30.09 1019 10 16 0.00 0.00
4:59 am 04:59 Mostly Cloudy 72 22.2 71 21.7 97 97 SSW 5 7 29.97 1015 9 14 0.00 0.00
5:59 am 05:59 Mostly Cloudy 58 14.4 55 12.7 90 90 W 3 6 30.14 1021 10 16 0.00 0.00
6:59 am 06:59 Cloudy 74 23.3 73 22.8 97 97 SSW 5 7 30.03 1017 7 11 0.00 0.00
7:59 am 07:59 Mostly Cloudy 77 25 73 22.8 88 88 N 7 11 30.04 1017 10 16 0.00 0.00
8:59 am 08:59 Mostly Cloudy 80 26.7 73 22.8 79 79 N 14 22 30.05 1018 10 16 0.00 0.00
9:59 am 09:59 Mostly Cloudy 81 27.2 72 22.2 74 74 N 10 17 30.06 1018 10 16 0.00 0.00
10:59 am 10:59 Mostly Cloudy 81 27.2 71 21.7 72 72 NNE 13 20 30.06 1018 10 16 0.00 0.00
11:59 am 11:59 Mostly Cloudy 82 27.8 70 21.1 67 67 N 13 20 30.06 1018 10 16 0.00 0.00
12:59 pm 12:59 Partly Cloudy 82 27.8 69 20.6 65 65 N 9 15 30.06 1018 10 16 0.00 0.00
1:59 pm 13:59 Partly Cloudy 83 28.3 69 20.6 63 63 ENE 9 15 30.06 1018 10 16 0.00 0.00
2:59 pm 14:59 Partly Cloudy 83 28.3 69 20.6 63 63 NE 6 9 30.05 1018 10 16 0.00 0.00
3:59 pm 15:59 Mostly Cloudy 82 27.8 69 20.6 65 65 NE 7 11 30.04 1017 10 16 0.00 0.00
4:59 pm 16:59 Mostly Cloudy 81 27.2 69 20.6 67 67 NNE 8 13 30.05 1018 10 16 0.00 0.00
5:59 pm 17:59 Mostly Cloudy 80 26.7 69 20.6 69 69 NNE 9 15 30.06 1018 10 16 0.00 0.00
6:59 pm 18:59 Mostly Cloudy 79 26.1 69 20.6 72 72 ENE 7 11 30.07 1018 10 16 0.00 0.00
7:59 pm 19:59 Mostly Cloudy 79 26.1 68 20 69 69 E 5 7 30.06 1018 10 16 0.00 0.00
8:59 pm 20:59 Partly Cloudy 77 25 67 19.4 71 71 NNE 3 6 30.06 1018 10 16 0.00 0.00
9:59 pm 21:59 Partly Cloudy 73 22.8 67 19.4 81 81 Calm 30.09 1019 10 16 0.00 0.00
10:59 pm 22:59 Mostly Clear 71 21.7 67 19.4 87 87 Calm 30.08 1019 10 16 0.00 0.00
11:59 pm 23:59 Mostly Clear 71 21.7 67 19.4 87 87 Calm 30.07 1018 10 16 0.00 0.00

Powered by AerisWeather